Regional Weather Roundup
Issued by NWS

Home | Current Version | Previous Version | Text Only | Print | Product List | Glossary On
Versions: 1 2 3 4 5 6 7 8 9 10 11 12 13 14 15 16 17 18 19 20 21 22 23 24 25 26 27 28 29 30 31 32 33 34 35 36 37 38 39 40 41 42 43 44 45 46 47 48 49 50
000
ASUS45 KCYS 300110
RWRWY

WYOMING REGIONAL WEATHER ROUNDUP
NATIONAL WEATHER SERVICE CHEYENNE WY
700 PM MDT WED JUL 29 2015

NOTE:  "FAIR" INDICATES FEW OR NO CLOUDS BELOW 12,000 FEET
WITH NO SIGNIFICANT WEATHER AND/OR OBSTRUCTIONS TO VISIBILITY.

WYZ001-300200-
YELLOWSTONE NATIONAL PARK

CITY           SKY/WX    TMP DP  RH WIND       PRES   REMARKS
LK YELLOWSTONE   N/A     67  28  23 VRB6      30.47R
W YELLOWSTONE  NOT AVBL

$$
WYZ002>013-054>058-071-098>099-300200-
NORTHERN WYOMING

CITY           SKY/WX    TMP DP  RH WIND       PRES   REMARKS
JACKSON        FAIR      73  34  23 SW3       30.36S
CODY           FAIR      77  30  18 E12       30.24S
GREYBULL       FAIR      82  27  13 CALM      30.17F
WORLAND        FAIR      82  32  16 NE5       30.18F
SHERIDAN       FAIR      81  36  19 CALM      30.20S
BUFFALO        FAIR      77  38  24 N12       30.25S
GILLETTE       FAIR      79  32  18 VRB3      30.21S
HULETT         FAIR      77  32  19 W5        30.23S
NEWCASTLE      FAIR      79  30  17 SE6       30.22S

$$
WYZ014>020-022>026-101>103-300200-
CENTRAL WYOMING

CITY           SKY/WX    TMP DP  RH WIND       PRES   REMARKS
BIG PINEY      FAIR      75  28  17 W6        30.37F
PINEDALE       FAIR      72  27  18 NW9G16    30.39S
DUBOIS         FAIR      72  25  17 NW14G21   30.37S
LANDER         FAIR      80  28  15 VRB3      30.23S
RIVERTON       FAIR      80  23  12 NE8       30.25S
CASPER         FAIR      82  14   8 N7        30.24F
DOUGLAS        FAIR      82  27  13 SW7       30.24S

$$
WYZ021-027>030-104>119-300200-
SOUTHERN WYOMING

CITY           SKY/WX    TMP DP  RH WIND       PRES   REMARKS
EVANSTON       FAIR      76  14   9 W16G23    30.39S
KEMMERER       FAIR      73  19  13 NW8       30.40F
FORT BRIDGER   CLEAR     81  16   9 NW13G18   30.39F
ROCK SPRINGS   FAIR      76   8   7 W12       30.35S
DIXON          FAIR      81  18   9 SW3       30.35S
RAWLINS        FAIR      78  12   8 W12       30.35S
SARATOGA       FAIR      77  19  11 W7        30.37R
LARAMIE        FAIR      76  23  14 N12       30.37S
CHEYENNE       FAIR      76  50  40 S15G23    30.30S
TORRINGTON     FAIR      83  47  28 SE8       30.18S
PINE BLUFFS    FAIR      79  48  34 S13       30.26S

$$



USA.gov is the U.S. government's official web portal to all federal, state and local government web resources and services.